AirNav   TITAN Aviation Fuels
 
 1180 users online  

0N0 Roosterville Airport
Liberty, Missouri, USA

GOING TO LIBERTY?


FAA INFORMATION EFFECTIVE 16 JUNE 2022

Location

FAA Identifier: 0N0
Lat/Long: 39-17-23.4000N 094-26-32.8000W
39-17.390000N 094-26.546667W
39.2898333,-94.4424444
(estimated)
Elevation: 1004 ft. / 306.0 m (surveyed)
Variation: 05E (1985)
From city: 3 miles NW of LIBERTY, MO
Time zone: UTC -5 (UTC -6 during Standard Time)
Zip code: 64157

Airport Operations

Airport use: Open to the public
Activation date: 07/1966
Control tower: no
ARTCC: KANSAS CITY CENTER
FSS: COLUMBIA FLIGHT SERVICE STATION
NOTAMs facility: COU (NOTAM-D service available)
Attendance: 0800-DUSK
FOR ATTENDANT OTHER HRS CALL 816-781-4326.
Wind indicator: yes
Segmented circle: no
Lights: ACTVT MIRL RY 18/36 - CTAF.

Airport Communications

CTAF/UNICOM: 122.8
WX AWOS-3T at GPH (7 nm NE): 120.275 (816-407-3399)
WX ASOS at MKC (12 nm SW): 120.75 (816-329-2843)
WX ASOS at MCI (13 nm W): PHONE 816-329-2808

Nearby radio navigation aids

VOR radial/distance  VOR name  Freq  Var
MCIr084/13.7KANSAS CITY VORTAC113.2505E
ANXr302/18.7NAPOLEON VORTAC114.0007E
BQSr229/33.3BRAYMER VOR/DME115.3503E

Airport Services

Fuel available: 100LL
Parking: tiedowns
Airframe service: MAJOR
Powerplant service: MAJOR
Bottled oxygen: NONE
Bulk oxygen: NONE

Runway Information

Runway 18/36

Dimensions: 2780 x 20 ft. / 847 x 6 m
Surface: asphalt, in good condition
Runway edge lights: non-standard
NSTD MIRL; LGTS 40-50 FT LEFT & RIGHT OF CNTRLN AT 100 FT DSTCS ON WEST SIDE; VARIOUS DSTCS ON EAST SIDE; 2 RED THLD LGTS AT EACH THLD.
Runway edge markings: RWY 36 NSTD BASIC MARKINGS; SMALL NR DESIGNATIONS & DASHED CNTRLN.
Operational restrictions: FIRST 50 FT ON NORTH END STEEP SLOPE; RY ALNMT CROOKED.
RUNWAY 18  RUNWAY 36
Latitude: 39-17.617333N39-17.162333N
Longitude: 094-26.513333W094-26.580500W
Elevation: 1003.0 ft.1004.0 ft.
Traffic pattern: leftleft
Markings: NSTD, in good conditionNSTD, in good condition
Obstructions: 62 ft. trees, 505 ft. from runway, 150 ft. left and right of centerline, 4:1 slope to clear
RWY 18 1-20 FT GND; BLDGS & AUTO PARKING AREA 0-200 FT FM RY END, 10-125 FT R.
26 ft. trees, 482 ft. from runway, 150 ft. left and right of centerline, 10:1 slope to clear
RWY 36 +1-4 FT GND & FC 25-30 FT FROM RY END L & R.

Airport Ownership and Management from official FAA records

Ownership: Privately-owned
Owner: AIRE KARE INC
11001 NE 112TH ST.
KANSAS CITY, MO 64157
Phone 816-781-7194
Manager: PAUL STUBER
11001 NE 112TH ST.
KANSAS CITY, MO 64057
Phone 816-781-7194

Airport Operational Statistics

Aircraft based on the field: 65
Single engine airplanes: 63
Multi engine airplanes: 2
    
Aircraft operations: avg 21/day *
92% local general aviation
8% transient general aviation
* for 12-month period ending 31 December 2020

Additional Remarks

WILDLIFE ON & INVOF RY ESPECIALLY EARLY MORNING HRS.
NSTD RY SAFETY AREAS BEYOND BOTH RY ENDS; RY 18 END LARGE DROP OFF; RY 36 HAS 4 FT FENCE 15 FT FM RY END.
FOR CD CTC KANSAS CITY APCH AT 816-329-2710.

Instrument Procedures

There are no published instrument procedures at 0N0.

Some nearby airports with instrument procedures:

KGPH - Midwest National Air Center Airport (7 nm NE)
3EX - Excelsior Springs Memorial Airport (12 nm E)
KMKC - Charles B Wheeler Downtown Airport (12 nm SW)
KMCI - Kansas City International Airport (13 nm W)
3GV - East Kansas City Airport (20 nm SE)
 
Loc | Ops | Rwys | IFR | FBO | Links
Com | Nav | Svcs | Stats | Notes
Area around 0N0 (Roosterville Airport)
 
Road maps at: MapQuest Bing Google
 
Aerial photo
WARNING: Photo may not be current or correct
Aerial photo of 0N0 (Roosterville Airport)
Photo by Stu Ostrander
Photo taken 13-May-2010

Do you have a better or more recent aerial photo of Roosterville Airport that you would like to share? If so, please send us your photo.

 
Sectional chart

 
Airport distance calculator
Flying to Roosterville Airport? Find the distance to fly.

From to 0N0

Sunrise and sunset
Times for 06-Jul-2022
 Local
(UTC-5)
 Zulu
(UTC)
Morning civil twilight05:2710:27
Sunrise05:5910:59
Sunset20:4601:46
Evening civil twilight21:1802:18

Current date and time
Zulu (UTC)  06-Jul-2022 23:20:41
Local (UTC-5)  06-Jul-2022 18:20:41
 
METAR
KGPH 
7nm NE 
062235Z AUTO 03007KT 10SM SCT033 BKN039 BKN046 29/23 A2992 RMK AO2
KMKC 
13nm SW 
062254Z 03010KT 10SM CLR 31/25 A2987 RMK AO2 SLP106 T03110250
KMCI 
14nm W 
062253Z 06011KT 10SM SCT100 BKN200 30/25 A2991 RMK AO2 SLP115 T03000250
KLXT 
20nm S 
062253Z AUTO 03013KT 10SM BKN047 32/26 A2990 RMK AO2 SLP112 T03220256
TAF
KMKC 
13nm SW 
061720Z 0618/0718 06006KT P6SM SCT100 FM070700 10006KT P6SM SCT080 BKN100 FM071500 09005KT P6SM VCTS BKN100CB
KMCI 
14nm W 
061720Z 0618/0718 06006KT P6SM SCT100 FM070700 10006KT P6SM SCT080 BKN100 FM071500 09005KT P6SM VCTS BKN100CB
NOTAMs
Click for the latest NOTAMs
NOTAMs are issued by the DoD/FAA and will open in a separate window not controlled by AirNav.

 

 
 

FBO, Fuel Providers, and Aircraft Ground Support

  
 Business Name 
 
 Contact 
 
 Services / Description 
 
Fuel Prices
 
Comments
  
Aire Kare 816-781-7194
no information available

If you are affiliated with Aire Kare and would like to show here your services, contact info, web link, logo, and more, click here
100LL
FS $4.00 
 Updated 24-Jun-2019
 
   write
FS=Full service
Update Fuel Prices
 

Would you like to see your business listed on this page?

 If your business provides an interesting product or service to pilots, flight crews, aircraft, or users of the Roosterville Airport, you should consider listing it here.  To start the listing process, click on the button below
 
Add a business
 

Other Pages about Roosterville Airport

Update a link
 
Copyright © AirNav, LLC. All rights reserved. Privacy Policy  Contact